Regional Weather Roundup
Issued by NWS Columbia, SC

Home | Current Version | Previous Version | Text Only | Print | Product List | Glossary On
Versions: 1 2 3 4 5 6 7 8 9 10 11 12 13 14 15 16 17 18 19 20 21 22 23 24 25 26 27 28 29 30 31 32 33 34 35 36 37 38 39 40 41 42 43 44 45 46 47 48 49 50
000
ASUS42 KCAE 041310
RWRCAE
REGIONAL WEATHER ROUNDUP
NATIONAL WEATHER SERVICE COLUMBIA SC
900 AM EDT MON MAY 04 2015

NOTE: "FAIR" INDICATES FEW OR NO CLOUDS BELOW 12,000 FEET WITH NO
SIGNIFICANT WEATHER AND/OR OBSTRUCTIONS TO VISIBILITY.

NOT ALL STATIONS ARE QUALITY CONTROLLED BY THE NATIONAL
WEATHER SERVICE. USE DATA WITH CAUTION...ESPECIALLY
DEWPOINT OBSERVATIONS.

SCZ001>056-GAZ040-063>065-077-041400-
...UPSTATE SOUTH CAROLINA...

CITY           SKY/WX    TMP DP  RH WIND       PRES   REMARKS
ANDERSON       SUNNY     64  55  72 SW6       30.31R
LIBERTY        SUNNY     59  55  86 CALM      30.29S
SPARTANBURG    SUNNY     64  54  68 CALM      30.30R
CLEMSON        SUNNY     63  55  75 N3        30.31R
GREENVILLE     SUNNY     65  52  62 W5        30.31R
GREENWOOD      SUNNY     66  53  63 W7        30.32R
GREER          SUNNY     64  54  69 SW3       30.29R
ROCK HILL      SUNNY     64  52  64 SW8       30.31R
LAURENS        SUNNY     63  57  82 SW6       30.31R


...CENTRAL SOUTH CAROLINA...

CITY           SKY/WX    TMP DP  RH WIND       PRES   REMARKS
COLUMBIA APT   MOSUNNY   64  53  67 CALM      30.32R
COLUMBIA OWENS SUNNY     65  54  67 CALM      30.33R
DARLINGTON     SUNNY     66  59  77 S8        30.33R
FLORENCE       MOSUNNY   66  60  81 S3        30.32R
MCENTIRE ANGB  MOSUNNY   65  56  73 S3        30.32R
ORANGEBURG     SUNNY     67  58  72 SW3       30.32R
SUMTER SHAW    SUNNY     68  58  70 S3        30.30R
NEWBERRY       SUNNY     63  52  67 SW3       30.35R
AIKEN          FAIR      63  52  67 CALM      30.35R
BARNWELL       FAIR      64  57  77 CALM      30.32S
MANNING        FAIR      66  57  72 CALM      30.32R
CAMDEN         FAIR      64  57  77 CALM      30.32R
LANCASTER      SUNNY     64  57  77 CALM      30.32R
WINNSBORO      SUNNY     66  54  63 SW5       30.32R


...EASTERN AND COASTAL SOUTH CAROLINA...

CITY           SKY/WX    TMP DP  RH WIND       PRES   REMARKS
MYRTLE BEACH   SUNNY     70  63  78 CALM      30.34R
N MYRTLE BCH   SUNNY     71  62  73 S5        30.33R
CONWAY         FAIR      64  63  94 CALM      30.33R
MARION         PTSUNNY   64  63  94 CALM      30.33R
HARTSVILLE     FAIR      66  59  77 S5        30.32S
FLORENCE       MOSUNNY   66  60  81 S3        30.32R
DARLINGTON     SUNNY     66  59  77 S8        30.33R
CHARLESTON APT MOSUNNY   71  62  73 CALM      30.32R
MOUNT PLEASANT FAIR      70  64  83 MISG      30.32R
WALTERBORO     SUNNY     66  61  82 CALM      30.32R
BEAUFORT       MOSUNNY   71  64  78 VRB3      30.31R


...EASTERN GEORGIA...

CITY           SKY/WX    TMP DP  RH WIND       PRES   REMARKS
AUGUSTA BUSH F SUNNY     62  54  74 SE6       30.31R
AUGUSTA DANIEL SUNNY     65  52  62 S3        30.32R
THOMSON        SUNNY     66  59  78 CALM      30.35R
WASHINGTON     FAIR      66  59  77 CALM      30.31R
CLAXTON        FAIR      63  59  88 CALM      30.31R
SYLVANIA       MOSUNNY   65  58  80 CALM      30.32R
STATESBORO       N/A     64  58  78 CALM      30.31R
SAVANNAH       MOSUNNY   69  62  78 CALM      30.30R


...SOUTHERN NORTH CAROLINA...

CITY           SKY/WX    TMP DP  RH WIND       PRES   REMARKS
CHARLOTTE      SUNNY     65  52  62 SW7       30.31R
MONROE         SUNNY     66  53  63 SW8       30.30R
WADESBORO      SUNNY     65  57  76 CALM      30.31R
ROCKINGHAM     SUNNY     66  56  71 SW5       30.32R
RUTHERFORDTON  SUNNY     60  54  81 CALM      30.31R
ASHEVILLE      SUNNY     56  49  77 CALM      30.34R

$$



USA.gov is the U.S. government's official web portal to all federal, state and local government web resources and services.